Bullock, NC

9:13 PM EST on February 09, 2016 (GMT -0500)
Henderson-Oxford

Weather History for KHNZ - September, 2013

Change the Weather History Date:

Saturday, September 21, 2013

  Actual Average (KRDU) Record (KRDU)
Temperature  
Mean Temperature 69 °F 70 °F  
Max Temperature 74 °F 81 °F 98 °F (1895)
Min Temperature 64 °F 60 °F 41 °F (1962)
Degree Days  
Heating Degree Days 0 1  
Month to date heating degree days 5  
Since 1 July heating degree days 6  
Cooling Degree Days 4 6  
Month to date cooling degree days 184  
Year to date cooling degree days 1625  
Growing Degree Days 19 (Base 50)    
Moisture  
Dew Point 65 °F    
Average Humidity 89    
Maximum Humidity 95    
Minimum Humidity 76    
Precipitation  
Precipitation 0.68 in 0.12 in 1.62 in (1979)
Month to date precipitation 3.23  
Year to date precipitation 32.77  
Sea Level Pressure  
Sea Level Pressure 29.86 in    
Wind  
Wind Speed 4 mph (South)    
Max Wind Speed 10 mph    
Max Gust Speed 17 mph    
Visibility 8 miles    
Events Rain    
T = Trace of Precipitation, MM = Missing Value Source: NWS Daily Summary

Daily Weather History Graph

Daily Weather History Graph

Search for Another Location

Airport or City:

Trip Planner

Search our weather history database for the weather conditions in past years. The results will help you decide how hot, cold, wet, or windy it might be!

Date:

Astronomy

Sep. 21, 2013 Rise Set
Actual Time 7:01 AM EDT 7:12 PM EDT
Civil Twilight 6:35 AM EDT 7:37 PM EDT
Nautical Twilight 6:05 AM EDT 8:07 PM EDT
Astronomical Twilight 5:35 AM EDT 8:38 PM EDT
Moon 8:27 PM EDT (9/21) 9:12 AM EDT (9/21)
Length of Visible Light 13h 02m
Length of Day
12h 10m
Waning Gibbous, 94% of the Moon is Illuminated
Sep 21
Waning Gibbous
Sep 26
Last Quarter
Oct 4
New
Oct 11
First Quarter
Oct 18
Full

Hourly Weather History & Observations

Time (EDT) Temp. Dew Point Humidity Pressure Visibility Wind Dir Wind Speed Gust Speed Precip Events Conditions
12:15 AM 66.2 °F 63.0 °F 89% 29.99 in 10.0 mi Calm Calm - N/A   Overcast
12:35 AM 66.4 °F 63.1 °F 89% 29.99 in 10.0 mi Calm Calm - N/A   Overcast
12:55 AM 66.4 °F 62.8 °F 88% 29.99 in 10.0 mi Calm Calm - N/A   Overcast
1:15 AM 66.4 °F 62.6 °F 88% 29.99 in 10.0 mi SSE 4.6 mph - N/A   Overcast
1:35 AM 66.4 °F 61.9 °F 85% 29.98 in 10.0 mi SSE 4.6 mph - N/A   Overcast
1:55 AM 66.4 °F 61.7 °F 85% 29.98 in 10.0 mi SSE 3.5 mph - N/A   Overcast
2:15 AM 66.2 °F 61.7 °F 85% 29.98 in 10.0 mi South 4.6 mph - N/A   Overcast
2:35 AM 66.2 °F 61.9 °F 86% 29.98 in 10.0 mi Calm Calm - N/A   Overcast
2:55 AM 65.5 °F 62.2 °F 89% 29.97 in 7.0 mi SE 3.5 mph - N/A Rain Rain
3:15 AM 65.3 °F 62.6 °F 91% 29.97 in 10.0 mi Calm Calm - N/A Rain Light Rain
3:35 AM 64.9 °F 62.6 °F 92% 29.96 in 10.0 mi SSE 4.6 mph - N/A   Light Drizzle
3:55 AM 64.9 °F 62.6 °F 92% 29.96 in 10.0 mi SSE 4.6 mph - N/A   Overcast
4:15 AM 64.9 °F 62.2 °F 91% 29.95 in 10.0 mi SSE 4.6 mph - N/A   Overcast
4:35 AM 64.9 °F 62.6 °F 92% 29.94 in 7.0 mi SSE 3.5 mph - N/A   Overcast
4:55 AM 64.9 °F 62.6 °F 92% 29.94 in 7.0 mi South 3.5 mph - 0.01 in Rain Rain
5:15 AM 64.8 °F 62.6 °F 93% 29.93 in 4.0 mi SE 5.8 mph - 0.06 in Rain Heavy Rain
5:35 AM 64.6 °F 62.6 °F 93% 29.93 in 5.0 mi Calm Calm - 0.10 in Rain Rain
5:55 AM 64.8 °F 62.8 °F 93% 29.93 in 5.0 mi SE 4.6 mph - 0.13 in Rain Light Rain
6:15 AM 64.8 °F 63.0 °F 94% 29.92 in 7.0 mi SSE 5.8 mph - 0.01 in Rain Light Rain
6:35 AM 64.8 °F 63.0 °F 94% 29.92 in 5.0 mi SSE 4.6 mph - 0.02 in Rain Heavy Rain
6:55 AM 64.8 °F 63.1 °F 94% 29.92 in 7.0 mi South 5.8 mph - 0.05 in Rain Light Rain
7:15 AM 64.8 °F 63.1 °F 94% 29.92 in 7.0 mi SSE 6.9 mph - N/A   Overcast
7:35 AM 64.8 °F 63.0 °F 94% 29.92 in 7.0 mi SSE 4.6 mph - N/A   Overcast
7:55 AM 64.8 °F 63.0 °F 94% 29.92 in 7.0 mi SSE 6.9 mph - 0.01 in   Overcast
8:15 AM 64.9 °F 63.1 °F 94% 29.92 in 5.0 mi SSE 4.6 mph - N/A   Overcast
8:35 AM 65.3 °F 63.5 °F 94% 29.91 in 5.0 mi SSE 6.9 mph - N/A   Overcast
8:55 AM 65.7 °F 63.9 °F 94% 29.91 in 7.0 mi SSE 6.9 mph - N/A   Overcast
9:15 AM 66.2 °F 64.0 °F 93% 29.91 in 7.0 mi SSE 5.8 mph - N/A   Overcast
9:35 AM 66.2 °F 64.0 °F 93% 29.91 in 7.0 mi SSE 4.6 mph - N/A   Overcast
9:55 AM 66.9 °F 64.4 °F 92% 29.91 in 10.0 mi SSE 8.1 mph - N/A   Overcast
10:15 AM 67.8 °F 64.4 °F 89% 29.91 in 10.0 mi SSE 8.1 mph - N/A   Overcast
10:35 AM 68.2 °F 64.6 °F 88% 29.91 in 10.0 mi South 6.9 mph - N/A   Overcast
10:55 AM 68.5 °F 64.8 °F 88% 29.90 in 10.0 mi South 5.8 mph - N/A   Overcast
11:15 AM 69.3 °F 65.1 °F 87% 29.89 in 10.0 mi SSE 5.8 mph - N/A   Overcast
11:35 AM 69.4 °F 64.8 °F 85% 29.89 in 10.0 mi SSE 8.1 mph - N/A   Overcast
11:55 AM 69.3 °F 65.3 °F 87% 29.88 in 10.0 mi SSE 6.9 mph - N/A   Overcast
12:15 PM 70.3 °F 65.7 °F 85% 29.87 in 10.0 mi SSE 6.9 mph - N/A   Overcast
12:35 PM 70.2 °F 65.7 °F 86% 29.86 in 10.0 mi South 6.9 mph - N/A   Overcast
12:55 PM 71.1 °F 66.0 °F 84% 29.86 in 10.0 mi SSE 6.9 mph - N/A   Overcast
1:15 PM 70.9 °F 65.8 °F 84% 29.86 in 10.0 mi South 8.1 mph - N/A   Overcast
1:35 PM 71.6 °F 66.0 °F 82% 29.84 in 10.0 mi South 4.6 mph - N/A   Overcast
1:55 PM 71.4 °F 66.2 °F 84% 29.83 in 10.0 mi South 6.9 mph - N/A   Overcast
2:15 PM 72.1 °F 66.2 °F 82% 29.82 in 10.0 mi South 6.9 mph - N/A   Overcast
2:35 PM 72.5 °F 66.2 °F 81% 29.82 in 10.0 mi South 6.9 mph - N/A   Overcast
2:55 PM 73.4 °F 66.6 °F 79% 29.80 in 10.0 mi South 6.9 mph - N/A   Overcast
3:15 PM 74.7 °F 66.6 °F 76% 29.79 in 10.0 mi SSE 9.2 mph - N/A   Mostly Cloudy
3:35 PM 74.3 °F 66.4 °F 76% 29.78 in 10.0 mi SSE 8.1 mph - N/A   Mostly Cloudy
3:55 PM 74.3 °F 66.4 °F 76% 29.78 in 10.0 mi South 5.8 mph - N/A   Mostly Cloudy
4:15 PM 73.4 °F 66.2 °F 78% 29.77 in 10.0 mi South 5.8 mph - N/A   Scattered Clouds
4:35 PM 73.4 °F 66.0 °F 78% 29.77 in 10.0 mi SE 4.6 mph - N/A   Mostly Cloudy
4:55 PM 72.5 °F 66.7 °F 82% 29.76 in 7.0 mi SSE 5.8 mph - N/A Rain Rain
5:15 PM 71.8 °F 68.0 °F 88% 29.76 in 7.0 mi Calm Calm - 0.01 in Rain Light Rain
5:35 PM 71.2 °F 68.2 °F 90% 29.75 in 5.0 mi SSE 3.5 mph - 0.02 in Rain Light Rain
5:55 PM 70.9 °F 68.4 °F 92% 29.75 in 5.0 mi SSE 4.6 mph - 0.03 in Rain Light Rain
6:15 PM 70.7 °F 68.4 °F 92% 29.74 in 4.0 mi SSE 4.6 mph - 0.03 in Rain Light Rain
6:35 PM 70.0 °F 67.8 °F 93% 29.76 in 1.8 mi SSW 10.4 mph 17.3 mph 0.37 in Rain Heavy Rain
6:55 PM 69.6 °F 67.3 °F 92% 29.75 in 7.0 mi South 6.9 mph - 0.37 in Rain Rain
7:15 PM 69.8 °F 67.3 °F 92% 29.75 in 10.0 mi SSW 3.5 mph - 0.01 in   Drizzle
7:35 PM 69.3 °F 67.1 °F 93% 29.75 in 7.0 mi SSW 3.5 mph - 0.01 in Rain Rain
7:55 PM 69.3 °F 67.3 °F 93% 29.76 in 7.0 mi Calm Calm - 0.01 in   Drizzle
8:15 PM 69.3 °F 67.5 °F 94% 29.76 in 5.0 mi SSW 3.5 mph - 0.01 in Rain Rain
8:35 PM 69.4 °F 67.6 °F 94% 29.76 in 5.0 mi SSW 4.6 mph - 0.02 in Rain Light Rain
8:55 PM 69.3 °F 67.6 °F 95% 29.76 in 4.0 mi SSW 3.5 mph - 0.02 in   Drizzle
9:15 PM 69.4 °F 68.0 °F 95% 29.76 in 3.0 mi SW 3.5 mph - N/A   Drizzle
9:35 PM 69.4 °F 68.0 °F 95% 29.76 in 3.0 mi WSW 3.5 mph - 0.01 in   Drizzle
9:55 PM 69.4 °F 68.0 °F 95% 29.76 in 3.0 mi Calm Calm - 0.02 in Rain Rain
10:15 PM 69.1 °F 67.5 °F 95% 29.76 in 5.0 mi SW 3.5 mph - N/A   Drizzle
10:35 PM 68.9 °F 67.1 °F 94% 29.77 in 7.0 mi WNW 4.6 mph - N/A   Light Drizzle
10:55 PM 67.5 °F 65.1 °F 92% 29.77 in 10.0 mi West 4.6 mph - N/A   Overcast
11:15 PM 66.6 °F 64.2 °F 92% 29.77 in 7.0 mi West 4.6 mph - 0.01 in Rain Rain
11:35 PM 65.8 °F 63.5 °F 92% 29.77 in 7.0 mi Calm Calm - 0.03 in Rain Light Rain
11:55 PM 65.7 °F 63.7 °F 93% 29.77 in 10.0 mi Calm Calm - 0.03 in Rain Light Rain